Погода в Щучьем

Россия / Ямало-Ненецкий автономный округ     67°15′52″N   68°40′20″E
темп.,
°C
ветер,
м/с
пор.,
м/с
влажн.,
%
обл.,
%
осадки,
мм/ч
давл.,
гПа
погр.,
м
15 апреля, чт
чт1523:00+1юз713100100 0.1 1001268
02:00+2юз511100100 0.0 998250
05:000ссв3599100 0.1 998213
08:00−1сз51085100 0.0 999296
11:00−1зсз598681 0.0 1000424
14:00−6с5793100 0.5 1002365
17:00−9с61094100 1.0 1006620
20:00−11с8148895 0.3 1012668
16 апреля, пт
пт1623:00−15с716825 0.3 1016478
02:00−18ссз512842 0.0 1020225
05:00−21сз22915 0.0 10239
08:00−18зюз258927 0.0 102492
11:00−14ююз6118847 0.0 1023412
14:00−10ююз71184100 0.0 1019636
17:00−8юз51083100 0.0 1015398
20:00−8зюз2596100 0.1 1012162
17 апреля, сб
сб1723:00−10с9159199 0.2 1014548
02:00−13с8168939 0.1 1019486
05:00−17ссз613885 0.1 1022244
08:00−19с38905 0.0 1023152
11:00−15ссз24835 0.0 1022172
14:00−13зсз22795 0.0 1022267
17:00−14зсз11905 0.0 10229
20:00−20сз22975 0.0 10229
18 апреля, вс
вс1823:00−24ссз22985 0.0 102410
02:00−25сз339814 0.0 102617
05:00−22сз359461 0.0 102752
08:00−14ссз4119193 0.0 1028305
11:00−10ссз6118699 0.0 1029773
14:00−9ссз7118794 0.0 1030826
17:00−8ссз61193100 0.3 1031950
20:00−11ссв3696100 0.4 1032143
19 апреля, пн
пн1923:00−11сз2496100 1.0 1032107
02:00−12сз479692 0.2 1032166
05:00−15сз3596100 0.3 103383
08:00−15зсз2386100 0.0 103374
11:00−11юз34815 0.0 1032151
14:00−9юз47855 0.0 1031299
17:00−9ююз47905 0.0 1029166
20:00−11ююз4894100 0.0 102798